This is the latest recevied weather packets stored in our database for station/object K5OLV. If no packets are shown the sender has not sent any weather packets the latest 10 day(s).
| Time | Temp. | Humidity | Pressure | Rain* | Wind** | Luminosity | Snow |
|---|---|---|---|---|---|---|---|
| 1777955822 | 16.11° C | 63% | 1011.4 hPa | 0 mm | - | 0 W/m² | - |
| 1777955518 | 16.11° C | 65% | 1011.4 hPa | 0 mm | - | 0 W/m² | - |
| 1777955214 | 16.11° C | 67% | 1011.4 hPa | 0 mm | - | 0 W/m² | - |
| 1777954912 | 16.11° C | 66% | 1011.5 hPa | 0 mm | - | 0 W/m² | - |
| 1777954609 | 16.11° C | 63% | 1011.7 hPa | 0 mm | - | 0 W/m² | - |
| 1777954306 | 16.11° C | 63% | 1011.5 hPa | 0 mm | - | 0 W/m² | - |
| 1777954003 | 16.11° C | 64% | 1011.5 hPa | 0 mm | - | 0 W/m² | - |
| 1777953700 | 16.67° C | 64% | 1011.5 hPa | 0 mm | - | 0 W/m² | - |
| 1777953396 | 16.11° C | 64% | 1011.6 hPa | 0 mm | - | 0 W/m² | - |
| 1777953092 | 16.11° C | 62% | 1012 hPa | 0 mm | - | 0 W/m² | - |
| 1777952789 | 16.67° C | 62% | 1011.4 hPa | 0 mm | - | 0 W/m² | - |
| 1777952486 | 17.22° C | 58% | 1011.7 hPa | 0 mm | - | 0 W/m² | - |
| 1777952183 | 17.22° C | 57% | 1011.5 hPa | 0 mm | - | 0 W/m² | - |
| 1777951882 | 17.22° C | 58% | 1011.5 hPa | 0 mm | - | 0 W/m² | - |
| 1777951579 | 17.22° C | 57% | 1011.6 hPa | 0 mm | - | 0 W/m² | - |
| 1777951275 | 17.22° C | 57% | 1011.9 hPa | 0 mm | - | 0 W/m² | - |
| 1777950973 | 17.22° C | 58% | 1011.6 hPa | 0 mm | - | 0 W/m² | - |
| 1777950669 | 16.67° C | 57% | 1011.6 hPa | 0 mm | - | 0 W/m² | - |
| 1777950366 | 16.67° C | 58% | 1011.6 hPa | 0 mm | - | 0 W/m² | - |
| 1777950061 | 16.67° C | 61% | 1011.7 hPa | 0 mm | - | 0 W/m² | - |
| 1777949757 | 16.67° C | 60% | 1011.6 hPa | 0 mm | - | 0 W/m² | - |
| 1777949457 | 16.67° C | 61% | 1011.9 hPa | 0 mm | - | 0 W/m² | - |
| 1777949153 | 16.67° C | 58% | 1011.7 hPa | 0 mm | - | 0 W/m² | - |
| 1777948850 | 16.67° C | 59% | 1011.9 hPa | 0 mm | - | 0 W/m² | - |
| 1777948548 | 16.67° C | 60% | 1011.9 hPa | 0 mm | - | 0 W/m² | - |
* Rain latest hour (hover to see other rain measurements)
** Current wind speed in m/s (hover to see current wind gust speed)